User: anonymous   Login
Location: Newark
(53.5596°N, 1.2370°W)
Time: 01:47:59
(UTC+00:00)
Language:

CUTE-I - Orbit

View from above orbital plane
View from above orbital plane
View from above satellite
View from above satellite

Ground track
Ground track

The orbit data is extracted from the following two-line orbital elements,

1 27844U 03031E   21058.45161902  .00000066  00000-0  49492-4 0  9990
2 27844  98.6828  68.3204 0010565  42.5132 317.6862 14.22290798916345
Epoch (UTC): 27 February 2021 10:50:19
Eccentricity: 0.0010565
inclination: 98.6828°
perigee height: 810 km
apogee height: 825 km
right ascension of ascending node: 68.3204°
argument of perigee: 42.5132°
revolutions per day: 14.22290798
mean anomaly at epoch: 317.6862°
orbit number at epoch: 91634

The dashed part of the orbit path shows where the satellite is in the earth's shadow,  

DLR